Terug naar catalogus

COSMOS 1513

ActiefNavigatiePO
NORAD 14546·PAYLOAD·🇷🇺 Russia

Gelanceerd Dec 8, 1983 vanaf Plesetsk Cosmodrome

Loading…

Volgende Passages (komende 24 uur)

TLE

VersSource: Space-Track

Epoch: Sep 14, 2026, 04:50 UTC

1 14546U 83120A   26257.20155334  .00000062  00000-0  49508-4 0  9997
2 14546  82.9426 166.5982 0038940  12.0624 139.9537 13.74472092144532

Volg COSMOS 1513 in realtime met AllMySat

Download on the App Store